TimeEDT,TemperatureF,Dew PointF,Humidity,Sea Level PressureIn,VisibilityMPH,Wind Direction,Wind SpeedMPH,Gust SpeedMPH,PrecipitationIn,Events,Conditions,WindDirDegrees,DateUTC
12:15 AM,37.4,35.6,93,29.91,10.0,East,8.1,-,N/A,,Overcast,100,2013-03-18 04:15:00
12:35 AM,37.4,35.6,93,29.90,10.0,ESE,12.7,17.3,N/A,,Overcast,110,2013-03-18 04:35:00
12:55 AM,37.4,35.6,93,29.90,10.0,ESE,9.2,-,N/A,,Overcast,120,2013-03-18 04:55:00
1:15 AM,37.4,35.6,93,29.89,7.0,South,6.9,-,N/A,,Overcast,180,2013-03-18 05:15:00
1:35 AM,37.4,35.6,93,29.87,7.0,ESE,9.2,-,N/A,,Overcast,110,2013-03-18 05:35:00
1:55 AM,37.4,35.6,93,29.87,10.0,SE,4.6,-,N/A,,Overcast,130,2013-03-18 05:55:00
2:15 AM,37.4,37.4,100,29.84,7.0,SE,8.1,-,N/A,,Overcast,130,2013-03-18 06:15:00
2:35 AM,37.4,37.4,100,29.82,7.0,SE,6.9,-,N/A,,Overcast,130,2013-03-18 06:35:00
2:55 AM,37.4,37.4,100,29.81,7.0,SE,8.1,-,N/A,,Overcast,140,2013-03-18 06:55:00
3:15 AM,37.4,37.4,100,29.79,7.0,SE,5.8,-,N/A,,Scattered Clouds,140,2013-03-18 07:15:00
3:35 AM,37.4,35.6,93,29.80,7.0,Calm,Calm,-,N/A,,Scattered Clouds,0,2013-03-18 07:35:00
3:55 AM,37.4,37.4,100,29.80,5.0,Calm,Calm,-,N/A,,Overcast,0,2013-03-18 07:55:00
4:15 AM,37.4,37.4,100,29.78,5.0,Calm,Calm,-,N/A,,Overcast,0,2013-03-18 08:15:00
4:35 AM,37.4,37.4,100,29.77,7.0,Calm,Calm,-,N/A,,Overcast,0,2013-03-18 08:35:00
4:55 AM,39.2,39.2,100,29.75,7.0,SSE,3.5,-,N/A,,Overcast,150,2013-03-18 08:55:00
5:15 AM,41.0,39.2,93,29.73,7.0,Calm,Calm,-,N/A,,Overcast,0,2013-03-18 09:15:00
5:35 AM,42.8,41.0,93,29.71,10.0,South,4.6,-,N/A,,Overcast,190,2013-03-18 09:35:00
5:55 AM,44.6,42.8,93,29.70,10.0,SSW,6.9,-,N/A,,Overcast,200,2013-03-18 09:55:00
6:15 AM,48.2,44.6,87,29.70,10.0,SSW,12.7,-,N/A,Rain,Light Rain,200,2013-03-18 10:15:00
6:35 AM,48.2,44.6,87,29.76,10.0,WNW,8.1,23.0,N/A,Rain,Light Rain,290,2013-03-18 10:35:00
6:55 AM,44.6,44.6,100,29.76,7.0,NNW,10.4,16.1,N/A,Rain,Rain,340,2013-03-18 10:55:00
7:15 AM,41.0,41.0,100,29.75,7.0,North,9.2,18.4,N/A,Rain,Light Rain,360,2013-03-18 11:15:00
7:35 AM,37.4,37.4,100,29.77,3.0,North,13.8,33.4,N/A,Rain,Heavy Rain,360,2013-03-18 11:35:00
7:55 AM,35.6,35.6,100,29.80,1.0,North,4.6,21.9,N/A,Rain,Light Rain,350,2013-03-18 11:55:00
8:15 AM,35.6,35.6,100,29.78,2.0,SE,4.6,-,N/A,Rain,Light Rain,130,2013-03-18 12:15:00
8:35 AM,37.4,37.4,100,29.77,2.0,Calm,Calm,-,N/A,Rain,Rain,0,2013-03-18 12:35:00
8:55 AM,37.4,37.4,100,29.78,2.5,Calm,Calm,-,N/A,Rain,Rain,0,2013-03-18 12:55:00
9:15 AM,37.4,37.4,100,29.78,2.5,South,3.5,-,N/A,Rain,Rain,170,2013-03-18 13:15:00
9:35 AM,39.2,39.2,100,29.78,1.5,SSW,3.5,-,N/A,,Overcast,200,2013-03-18 13:35:00
9:55 AM,39.2,39.2,100,29.77,1.0,Calm,Calm,-,N/A,,Overcast,0,2013-03-18 13:55:00
10:15 AM,39.2,39.2,100,29.76,1.0,SSW,4.6,-,N/A,Rain,Light Rain,200,2013-03-18 14:15:00
10:35 AM,41.0,41.0,100,29.78,1.2,WSW,3.5,-,N/A,Rain,Rain,250,2013-03-18 14:35:00
10:55 AM,41.0,41.0,100,29.76,0.8,South,8.1,-,N/A,,Unknown,180,2013-03-18 14:55:00
11:15 AM,41.0,41.0,100,29.76,1.8,Calm,Calm,-,N/A,Rain,Heavy Rain,0,2013-03-18 15:15:00
11:35 AM,42.8,42.8,100,29.79,2.5,SW,6.9,-,N/A,Rain,Rain,220,2013-03-18 15:35:00
11:55 AM,44.6,44.6,100,29.79,2.0,SW,6.9,-,N/A,Rain,Heavy Rain,220,2013-03-18 15:55:00
12:15 PM,44.6,44.6,100,29.80,1.5,SSW,8.1,-,N/A,Rain,Rain,200,2013-03-18 16:15:00
12:35 PM,46.4,46.4,100,29.77,1.8,South,9.2,-,N/A,Rain,Heavy Rain,190,2013-03-18 16:35:00
12:55 PM,48.2,48.2,100,29.73,3.0,South,12.7,-,N/A,Rain,Rain,170,2013-03-18 16:55:00
1:15 PM,50.0,50.0,100,29.73,10.0,SSW,11.5,16.1,N/A,Rain,Rain,200,2013-03-18 17:15:00
1:35 PM,51.8,50.0,94,29.70,10.0,SSW,13.8,20.7,N/A,Rain,Light Rain,210,2013-03-18 17:35:00
1:55 PM,51.8,50.0,94,29.70,10.0,SW,12.7,-,N/A,,Mostly Cloudy,230,2013-03-18 17:55:00
2:15 PM,53.6,50.0,88,29.70,10.0,SW,16.1,25.3,N/A,,Scattered Clouds,220,2013-03-18 18:15:00
2:35 PM,53.6,50.0,88,29.70,10.0,SW,11.5,-,N/A,,Clear,220,2013-03-18 18:35:00
2:55 PM,53.6,50.0,88,29.69,10.0,SSW,15.0,18.4,N/A,,Clear,210,2013-03-18 18:55:00
3:15 PM,53.6,50.0,88,29.68,10.0,SW,13.8,18.4,N/A,,Clear,220,2013-03-18 19:15:00
3:35 PM,55.4,50.0,82,29.68,10.0,SW,12.7,-,N/A,,Mostly Cloudy,220,2013-03-18 19:35:00
3:55 PM,55.4,51.8,88,29.69,10.0,WSW,8.1,20.7,N/A,,Overcast,240,2013-03-18 19:55:00
4:15 PM,55.4,51.8,88,29.68,10.0,WSW,11.5,18.4,N/A,,Overcast,240,2013-03-18 20:15:00
4:35 PM,55.4,51.8,88,29.70,10.0,SW,11.5,-,N/A,,Overcast,230,2013-03-18 20:35:00
4:55 PM,55.4,51.8,88,29.70,10.0,SW,8.1,-,N/A,,Overcast,230,2013-03-18 20:55:00
5:15 PM,55.4,51.8,88,29.71,10.0,SW,13.8,-,N/A,,Overcast,230,2013-03-18 21:15:00
5:35 PM,55.4,50.0,82,29.72,10.0,WSW,11.5,18.4,N/A,,Overcast,250,2013-03-18 21:35:00
5:55 PM,57.2,50.0,77,29.72,10.0,West,11.5,16.1,N/A,,Overcast,260,2013-03-18 21:55:00
6:15 PM,55.4,50.0,82,29.72,10.0,West,8.1,11.5,N/A,,Overcast,270,2013-03-18 22:15:00
6:35 PM,55.4,48.2,77,29.73,10.0,West,9.2,-,N/A,,Overcast,270,2013-03-18 22:35:00
6:55 PM,51.8,50.0,94,29.75,10.0,NW,8.1,-,N/A,,Overcast,310,2013-03-18 22:55:00
7:15 PM,53.6,48.2,82,29.76,10.0,NW,9.2,19.6,N/A,,Overcast,310,2013-03-18 23:15:00
7:35 PM,51.8,46.4,82,29.77,10.0,WNW,10.4,18.4,N/A,,Overcast,300,2013-03-18 23:35:00
7:55 PM,51.8,46.4,82,29.78,10.0,West,13.8,19.6,N/A,,Overcast,280,2013-03-18 23:55:00
8:15 PM,50.0,46.4,87,29.78,10.0,WNW,11.5,-,N/A,,Overcast,290,2013-03-19 00:15:00
8:35 PM,50.0,46.4,87,29.79,10.0,WNW,10.4,17.3,N/A,,Overcast,300,2013-03-19 00:35:00
8:55 PM,50.0,44.6,82,29.80,10.0,WNW,13.8,23.0,N/A,,Overcast,290,2013-03-19 00:55:00
9:15 PM,48.2,44.6,87,29.82,7.0,NW,13.8,-,N/A,,Overcast,320,2013-03-19 01:15:00
9:35 PM,46.4,42.8,87,29.83,7.0,NW,11.5,18.4,N/A,,Light Drizzle,310,2013-03-19 01:35:00
9:55 PM,46.4,42.8,87,29.83,10.0,WNW,5.8,16.1,N/A,,Overcast,300,2013-03-19 01:55:00
10:15 PM,44.6,41.0,87,29.84,10.0,NW,10.4,23.0,N/A,,Overcast,310,2013-03-19 02:15:00
10:35 PM,44.6,41.0,87,29.86,10.0,WNW,15.0,20.7,N/A,,Overcast,300,2013-03-19 02:35:00
10:55 PM,44.6,39.2,81,29.87,10.0,WNW,16.1,24.2,N/A,,Overcast,300,2013-03-19 02:55:00
11:15 PM,42.8,37.4,81,29.88,10.0,WNW,12.7,19.6,N/A,,Overcast,300,2013-03-19 03:15:00
11:35 PM,42.8,37.4,81,29.89,10.0,WNW,11.5,20.7,N/A,,Overcast,300,2013-03-19 03:35:00
11:55 PM,42.8,35.6,76,29.90,10.0,NW,11.5,19.6,N/A,,Overcast,310,2013-03-19 03:55:00